FW7348 Weather Reports


time (UTC)temp
C
wind
direction
speed
KPH
gust
KPH
rain 1hr
cm
rain 24hr
cm
rain mn
cm
humidity
%
barometer
mb
20260503031043 6 359 1.6 1.6 0.00 0.00 0.00 65 1013.3
20260503030539 6 356 1.6 1.6 0.00 0.00 0.00 65 1013.2
20260503030037 6 2 1.6 1.6 0.00 0.00 0.00 65 1013.3
20260503025533 6 3 1.6 1.6 0.00 0.00 0.00 66 1013.2
20260503025031 6 4 1.6 3.2 0.00 0.00 0.00 58 1013.1
20260503024527 6 329 0.0 1.6 0.00 0.00 0.00 62 1013.3
20260503024025 6 329 0.0 1.6 0.00 0.00 0.00 64 1013.3
20260503023521 6 329 1.6 1.6 0.00 0.00 0.00 61 1013.3
20260503023019 6 329 1.6 1.6 0.00 0.00 0.00 63 1013.5
20260503022514 6 329 1.6 3.2 0.00 0.00 0.00 59 1013.3
20260503022009 6 338 3.2 3.2 0.00 0.00 0.00 55 1013.5
20260503021506 6 16 0.0 3.2 0.00 0.00 0.00 48 1013.4
20260503021003 6 25 1.6 3.2 0.00 0.00 0.00 49 1013.4
20260503020500 6 7 1.6 4.8 0.00 0.00 0.00 51 1013.5
20260503015957 6 49 3.2 3.2 0.00 0.00 0.00 52 1013.7
20260503015454 6 88 1.6 3.2 0.00 0.00 0.00 53 1013.6
20260503014950 6 142 1.6 1.6 0.00 0.00 0.00 53 1013.6
20260503014447 6 141 0.0 1.6 0.00 0.00 0.00 52 1013.6
20260503013945 6 142 1.6 1.6 0.00 0.00 0.00 56 1013.9
20260503013442 6 142 1.6 1.6 0.00 0.00 0.00 55 1013.9
20260503012939 6 142 0.0 0.0 0.00 0.00 0.00 54 1013.8
20260503012437 6 142 0.0 1.6 0.00 0.00 0.00 54 1014.2
20260503011933 7 142 0.0 0.0 0.00 0.00 0.00 54 1013.9
20260503011430 7 142 0.0 0.0 0.00 0.00 0.00 51 1013.9
20260503010927 6 142 0.0 1.6 0.00 0.00 0.00 53 1013.8
20260503010424 7 142 0.0 1.6 0.00 0.00 0.00 54 1013.8
20260503005921 6 142 1.6 1.6 0.00 0.00 0.00 52 1013.8
20260503005418 7 143 0.0 1.6 0.00 0.00 0.00 55 1014.0
20260503004915 7 142 0.0 1.6 0.00 0.00 0.00 54 1014.3
20260503004412 7 143 1.6 1.6 0.00 0.00 0.00 50 1014.0
20260503003909 7 143 0.0 0.0 0.00 0.00 0.00 48 1014.4
20260503003405 8 143 0.0 0.0 0.00 0.00 0.00 46 1014.2
20260503002903 8 142 0.0 1.6 0.00 0.00 0.00 45 1014.4
20260503002400 7 141 0.0 1.6 0.00 0.00 0.00 45 1014.3
20260503001856 8 158 0.0 1.6 0.00 0.00 0.00 45 1014.6
20260503001353 8 144 3.2 4.8 0.00 0.00 0.00 44 1014.5
20260503000850 8 196 3.2 3.2 0.00 0.00 0.00 43 1014.6
20260503000348 8 182 3.2 4.8 0.00 0.00 0.00 43 1014.5
20260502235844 8 154 0.0 4.8 0.00 0.00 0.00 42 1014.6
20260502235341 8 155 1.6 1.6 0.00 0.00 0.00 43 1014.8
20260502234838 8 151 1.6 3.2 0.00 0.00 0.00 42 1014.7
20260502234335 8 147 0.0 0.0 0.00 0.00 0.00 43 1014.7
20260502233832 8 159 0.0 1.6 0.00 0.00 0.00 44 1014.8
20260502233328 8 156 1.6 1.6 0.00 0.00 0.00 43 1015.0
20260502232825 8 167 0.0 3.2 0.00 0.00 0.00 43 1015.1
20260502232321 8 147 4.8 4.8 0.00 0.00 0.00 43 1015.0
20260502231818 8 182 3.2 3.2 0.00 0.00 0.00 43 1015.0
20260502231316 8 186 4.8 9.7 0.00 0.00 0.00 41 1015.1
20260502230814 8 162 4.8 8.0 0.00 0.00 0.00 43 1015.1
20260502230312 8 215 4.8 8.0 0.00 0.00 0.00 43 1015.2
20260502225808 8 149 4.8 8.0 0.00 0.00 0.00 43 1015.0
20260502225305 9 155 4.8 9.7 0.00 0.00 0.00 41 1015.4
20260502224801 10 194 1.6 4.8 0.00 0.00 0.00 42 1015.3
20260502224258 10 210 4.8 9.7 0.00 0.00 0.00 42 1015.2
20260502223756 8 175 4.8 8.0 0.00 0.00 0.00 44 1015.3
20260502223254 10 202 4.8 8.0 0.00 0.00 0.00 42 1015.6
20260502222751 10 201 6.4 9.7 0.00 0.00 0.00 41 1015.5
20260502222248 10 183 19.3 24.1 0.00 0.00 0.00 41 1015.7
20260502221743 10 217 11.3 16.1 0.00 0.00 0.00 42 1015.6
20260502221240 9 134 3.2 22.5 0.00 0.00 0.00 43 1015.7
20260502220737 10 185 1.6 3.2 0.00 0.00 0.00 44 1015.6
20260502220233 8 173 1.6 12.9 0.00 0.00 0.00 45 1015.9
20260502215730 8 159 8.0 14.5 0.00 0.00 0.00 46 1015.8
20260502215227 10 193 4.8 8.0 0.00 0.00 0.00 45 1015.9
20260502214724 10 211 1.6 4.8 0.00 0.00 0.00 43 1016.2
20260502214221 9 166 0.0 3.2 0.00 0.00 0.00 46 1016.2
20260502213718 10 226 4.8 8.0 0.00 0.00 0.00 44 1016.1
20260502213216 9 180 9.7 14.5 0.00 0.00 0.00 47 1016.5
20260502212714 9 193 3.2 8.0 0.00 0.00 0.00 46 1016.1
20260502212212 10 171 8.0 11.3 0.00 0.00 0.00 47 1016.4
20260502211708 10 138 11.3 14.5 0.00 0.00 0.00 44 1016.4
20260502211205 10 134 8.0 11.3 0.00 0.00 0.00 47 1016.2
20260502210702 10 204 8.0 12.9 0.00 0.00 0.00 45 1016.3
20260502210159 10 276 4.8 9.7 0.00 0.00 0.00 42 1016.4
20260502205656 10 216 9.7 12.9 0.00 0.00 0.00 46 1016.4
20260502205153 10 214 8.0 14.5 0.00 0.00 0.00 45 1016.7
20260502204649 10 245 6.4 9.7 0.00 0.00 0.00 45 1016.8
20260502204147 11 243 8.0 12.9 0.00 0.00 0.00 45 1016.8
20260502203644 10 186 11.3 20.9 0.00 0.00 0.00 46 1016.7
20260502203143 11 209 12.9 16.1 0.00 0.00 0.00 43 1017.0
20260502202637 12 198 6.4 20.9 0.00 0.00 0.00 44 1017.2
20260502202135 11 255 8.0 12.9 0.00 0.00 0.00 45 1017.2
20260502201632 11 29 4.8 12.9 0.00 0.00 0.00 46 1017.3
20260502201128 11 229 4.8 20.9 0.00 0.00 0.00 44 1017.3
20260502200624 10 192 12.9 17.7 0.00 0.00 0.00 44 1017.4
20260502200121 10 191 8.0 20.9 0.00 0.00 0.00 48 1017.4
20260502195620 11 173 9.7 12.9 0.00 0.00 0.00 44 1017.5
20260502195115 10 219 8.0 14.5 0.00 0.00 0.00 46 1017.7
20260502194612 10 257 9.7 22.5 0.00 0.00 0.00 46 1017.6
20260502194108 11 67 6.4 16.1 0.00 0.00 0.00 42 1017.7
20260502193605 11 254 3.2 12.9 0.00 0.00 0.00 45 1017.7
20260502193102 10 203 11.3 14.5 0.00 0.00 0.00 48 1017.8
20260502192558 10 176 12.9 17.7 0.00 0.00 0.00 48 1018.0
20260502192056 11 220 4.8 11.3 0.00 0.00 0.00 50 1017.9
20260502191552 10 158 4.8 11.3 0.00 0.00 0.00 47 1018.0
20260502191050 11 215 8.0 9.7 0.00 0.00 0.00 48 1017.9
20260502190547 10 153 8.0 16.1 0.00 0.00 0.00 51 1018.3
20260502190038 10 224 6.4 12.9 0.00 0.00 0.00 49 1018.3
20260502185533 10 253 9.7 22.5 0.00 0.00 0.00 50 1018.1
20260502185030 9 160 4.8 14.5 0.00 0.00 0.00 52 1018.3
20260502184526 10 204 4.8 14.5 0.00 0.00 0.00 50 1018.3
20260502184022 10 219 6.4 8.0 0.00 0.00 0.00 50 1018.5
20260502183519 9 189 9.7 16.1 0.00 0.00 0.00 51 1018.4
20260502183015 11 200 6.4 11.3 0.00 0.00 0.00 51 1018.4
20260502182509 11 236 4.8 9.7 0.00 0.00 0.00 50 1018.4
20260502182006 10 222 9.7 12.9 0.00 0.00 0.00 54 1018.6
20260502181504 10 217 6.4 12.9 0.00 0.00 0.00 52 1018.6
20260502181003 10 172 4.8 20.9 0.00 0.00 0.00 54 1018.8
20260502180459 8 199 8.0 11.3 0.00 0.00 0.00 54 1018.7
20260502170418 7 123 9.7 14.5 0.00 0.00 0.00 57 1019.7
20260502163901 8 133 11.3 16.1 0.00 0.00 0.00 54 1019.6
20260502163358 6 202 8.0 20.9 0.00 0.00 0.00 63 1019.8
20260502162855 6 179 8.0 12.9 0.00 0.00 0.00 61 1019.9
20260502162352 6 187 6.4 9.7 0.00 0.00 0.00 60 1019.9
20260502161849 7 134 8.0 16.1 0.00 0.00 0.00 56 1020.2
20260502161345 6 194 14.5 17.7 0.00 0.00 0.00 59 1020.3
20260502160843 6 165 9.7 12.9 0.00 0.00 0.00 65 1020.2
20260502160341 7 190 8.0 14.5 0.00 0.00 0.00 60 1020.2
20260502152316 6 211 6.4 14.5 0.00 0.00 0.00 60 1020.6
20260502151814 6 140 4.8 8.0 0.00 0.00 0.00 60 1020.5
20260502151310 6 194 8.0 11.3 0.00 0.00 0.00 60 1020.6
20260502150808 5 135 9.7 12.9 0.00 0.00 0.00 64 1020.5
20260502150304 6 201 9.7 11.3 0.00 0.00 0.00 60 1020.9
20260502130653 9 142 1.6 4.8 0.00 0.00 0.00 53 1021.3
20260502130151 6 143 1.6 3.2 0.00 0.00 0.00 55 1021.3
20260502123636 3 334 0.0 1.6 0.00 0.00 0.00 71 1021.4
20260502123133 2 336 1.6 1.6 0.00 0.00 0.00 72 1021.6
20260502122629 1 332 0.0 0.0 0.00 0.00 0.00 74 1021.5
20260502122126 1 332 0.0 1.6 0.00 0.00 0.00 76 1021.4
20260502121624 0 332 0.0 1.6 0.00 0.00 0.00 81 1021.7
20260502121121 0 332 1.6 1.6 0.00 0.00 0.00 84 1021.5
20260502120618 0 331 1.6 1.6 0.00 0.00 0.00 84 1021.8
20260502120115 -1 332 1.6 1.6 0.00 0.00 0.00 84 1021.7
20260502115613 -1 332 3.2 3.2 0.00 0.00 0.00 82 1021.6
20260502115108 -1 327 1.6 1.6 0.00 0.00 0.00 85 1021.8
20260502114604 -1 327 1.6 3.2 0.00 0.00 0.00 84 1021.8
20260502114102 -2 326 3.2 3.2 0.00 0.00 0.00 87 1021.7
20260502113559 -2 322 3.2 3.2 0.00 0.00 0.00 87 1021.9
20260502113058 -2 322 3.2 3.2 0.00 0.00 0.00 87 1021.7
20260502112555 -3 317 3.2 3.2 0.00 0.00 0.00 89 1021.7
20260502112053 -3 315 3.2 3.2 0.00 0.00 0.00 90 1021.5
20260502111550 -3 315 4.8 4.8 0.00 0.00 0.00 88 1021.8
20260502111047 -3 318 3.2 3.2 0.00 0.00 0.00 89 1021.7
20260502110544 -3 319 3.2 3.2 0.00 0.00 0.00 91 1021.6
20260502110042 -3 319 3.2 3.2 0.00 0.00 0.00 90 1021.5
20260502105539 -3 319 3.2 3.2 0.00 0.00 0.00 87 1021.7
20260502105037 -3 321 3.2 4.8 0.00 0.00 0.00 86 1021.7
20260502104534 -3 322 4.8 4.8 0.00 0.00 0.00 89 1021.6
20260502104031 -3 322 3.2 3.2 0.00 0.00 0.00 88 1021.7
20260502103529 -3 325 3.2 4.8 0.00 0.00 0.00 91 1021.4
20260502103027 -3 321 3.2 3.2 0.00 0.00 0.00 90 1021.4
20260502102522 -3 321 1.6 3.2 0.00 0.00 0.00 90 1021.5
20260502102020 -3 321 1.6 4.8 0.00 0.00 0.00 92 1021.7
20260502101517 -3 321 4.8 8.0 0.00 0.00 0.00 90 1021.7
20260502101016 -3 323 4.8 8.0 0.00 0.00 0.00 91 1021.8
20260502100514 -3 326 3.2 3.2 0.00 0.00 0.00 89 1022.0
20260502091448 -3 335 3.2 3.2 0.00 0.00 0.00 90 1021.8
20260502090946 -3 319 0.0 3.2 0.00 0.00 0.00 89 1021.9
20260502090443 -3 323 3.2 4.8 0.00 0.00 0.00 90 1022.1
20260502071337 -2 321 3.2 8.0 0.00 0.00 0.00 87 1022.3
20260502070835 -2 322 3.2 3.2 0.00 0.00 0.00 88 1022.5
20260502070333 -2 322 3.2 3.2 0.00 0.00 0.00 88 1022.5
20260502065831 -2 322 3.2 3.2 0.00 0.00 0.00 87 1022.6
20260502065329 -2 322 1.6 3.2 0.00 0.00 0.00 88 1022.4
20260502064827 -2 323 3.2 3.2 0.00 0.00 0.00 87 1022.7
20260502064325 -2 322 3.2 3.2 0.00 0.00 0.00 86 1022.6
20260502063822 -2 323 3.2 3.2 0.00 0.00 0.00 85 1022.6
20260502063320 -2 323 3.2 3.2 0.00 0.00 0.00 87 1022.7
20260502062816 -2 323 3.2 3.2 0.00 0.00 0.00 85 1022.8
20260502062314 -2 323 1.6 3.2 0.00 0.00 0.00 84 1022.9
20260502061812 -2 323 3.2 4.8 0.00 0.00 0.00 83 1022.8
20260502061310 -2 330 3.2 3.2 0.00 0.00 0.00 83 1022.9
20260502060805 -2 336 3.2 3.2 0.00 0.00 0.00 85 1022.8
20260502060301 -2 347 1.6 1.6 0.00 0.00 0.00 87 1022.9
20260502055759 -2 347 1.6 1.6 0.00 0.00 0.00 86 1022.8
20260502055256 -2 347 1.6 1.6 0.00 0.00 0.00 87 1022.7
20260502054755 -2 347 1.6 1.6 0.00 0.00 0.00 85 1022.6
20260502054252 -1 349 1.6 3.2 0.00 0.00 0.00 86 1023.0
20260502053750 -1 349 1.6 1.6 0.00 0.00 0.00 85 1022.8
20260502053247 -1 359 3.2 3.2 0.00 0.00 0.00 84 1022.8
20260502052745 0 40 3.2 3.2 0.00 0.00 0.00 74 1022.9
20260502052243 0 108 1.6 4.8 0.00 0.00 0.00 70 1023.0
20260502051740 1 341 4.8 8.0 0.00 0.00 0.00 66 1022.9
20260502051239 1 323 6.4 9.7 0.00 0.00 0.00 67 1022.6
20260502050735 1 325 4.8 9.7 0.00 0.00 0.00 67 1022.9
20260502050231 1 322 6.4 9.7 0.00 0.00 0.00 67 1022.9
20260502045728 1 329 8.0 11.3 0.00 0.00 0.00 66 1022.9
20260502045225 1 320 8.0 11.3 0.00 0.00 0.00 66 1022.8
20260502044722 1 313 9.7 12.9 0.00 0.00 0.00 65 1022.8
20260502044218 1 307 6.4 9.7 0.00 0.00 0.00 66 1022.8
20260502043716 1 351 6.4 9.7 0.00 0.00 0.00 66 1023.0
20260502043213 1 338 4.8 9.7 0.00 0.00 0.00 66 1022.7
20260502042712 1 332 6.4 11.3 0.00 0.00 0.00 65 1022.8
20260502042210 1 336 4.8 9.7 0.00 0.00 0.00 65 1022.8
20260502041708 1 355 6.4 11.3 0.00 0.00 0.00 65 1022.7
20260502041204 1 295 8.0 11.3 0.00 0.00 0.00 65 1022.8
20260502040701 1 321 6.4 9.7 0.00 0.00 0.00 65 1022.8
20260502040159 1 300 8.0 11.3 0.00 0.00 0.00 66 1022.9
20260502035655 1 308 8.0 9.7 0.00 0.00 0.00 65 1023.0
20260502035151 2 336 8.0 9.7 0.00 0.00 0.00 65 1022.6
20260502034649 2 329 4.8 11.3 0.00 0.00 0.00 65 1022.7
20260502034147 2 335 4.8 14.5 0.00 0.00 0.00 64 1022.9
20260502033645 2 321 4.8 9.7 0.00 0.00 0.00 65 1022.8
20260502033143 2 344 6.4 11.3 0.00 0.00 0.00 64 1022.7
20260502032639 2 320 4.8 8.0 0.00 0.00 0.00 64 1022.7
20260502032135 1 292 4.8 8.0 0.00 0.00 0.00 65 1022.8
20260502031633 1 308 6.4 9.7 0.00 0.00 0.00 66 1023.0
20260502031131 1 333 1.6 4.8 0.00 0.00 0.00 67 1022.8